[[{"header":{"parameterUnit":"m.s-1","parameterCategory":1,"la1":30.2991,"la2":30.254,"lo1":-89.0895,"lo2":-89.0444,"dy":0.0017,"dx":0.0017,"nx":28,"ny":28,"refTime":"2025-04-01T03:00:00:Z","depth":0,"parameterNumber":2,"parameterNumberName":"U-component_of_WINDS"},"data":[0,0,0,0,0,0,0,0,0,0,0,0,0,0,0,0,0,0,0,0,0,0,0,0,0,0,0,0,0,0,0,0,0,0,0,0,0,0,0,0,0,0,0,0,0,0,0,0,0,0,0,0,0,0,0,0,0,0,-0.6199,-0.6198,0,-0.6173,-0.6173,-0.6172,-0.6159,-0.6159,-0.6159,-0.6159,-0.6136,-0.6135,-0.6135,0,0,0,0,0,0,0,0,0,0,0,0,0,-0.6236,-0.6235,-0.6199,-0.6198,-0.6198,-0.6173,-0.6173,-0.6172,-0.6159,-0.6159,-0.6159,-0.6159,-0.6136,-0.6136,-0.6135,0,0,0,0,0,0,0,0,0,0,0,0,0,-0.6216,-0.6235,-0.6199,-0.6188,-0.6187,-0.6173,-0.6173,-0.6172,-0.6159,-0.6159,-0.6159,-0.6159,-0.6136,-0.6136,-0.6135,-0.613,0,0,-0.6132,-0.6132,0,0,0,0,0,0,0,0,-0.6217,-0.6215,-0.619,-0.6189,-0.6188,-0.6169,-0.6177,-0.6158,-0.6159,-0.617,-0.6159,-0.6159,-0.6147,-0.6146,-0.6141,-0.6129,-0.6128,-0.6132,-0.6131,-0.6131,-0.6131,0,0,0,0,0,0,0,-0.6219,-0.6216,-0.6189,-0.619,-0.6188,-0.6185,-0.6182,-0.6174,-0.6159,-0.6169,-0.6168,-0.6165,-0.6147,-0.6142,-0.614,-0.6127,-0.6132,-0.6131,-0.6131,-0.613,-0.6105,-0.6105,0,0,0,0,0,0,-0.6221,-0.6217,-0.6189,-0.6188,-0.6203,-0.6184,-0.6181,-0.6175,-0.6159,-0.6157,-0.6165,-0.6164,-0.6143,-0.6141,-0.6139,-0.613,-0.6131,-0.613,-0.613,-0.6106,-0.6105,-0.6105,0,0,0,0,0,0,-0.6222,-0.6219,-0.619,-0.6202,-0.6198,-0.6184,-0.6177,-0.6175,-0.617,-0.6156,-0.6154,-0.6163,-0.6143,-0.6141,-0.6131,-0.6129,-0.613,-0.6129,-0.6106,-0.6105,-0.6105,-0.6113,0,0,0,0,0,0,-0.6223,-0.622,-0.6218,-0.6202,-0.6197,-0.6183,-0.6177,-0.6174,-0.6168,-0.6167,-0.6153,-0.6151,-0.6143,-0.6132,-0.613,-0.6128,-0.6128,-0.6106,-0.6106,-0.6105,-0.6113,-0.6113,-0.6113,0,0,0,0,0,-0.6225,-0.6223,-0.6218,-0.6215,-0.6195,-0.6183,-0.618,-0.617,-0.6168,-0.6166,-0.6156,-0.6152,-0.6129,-0.6132,-0.6129,-0.6126,-0.6106,-0.6106,-0.6105,-0.6112,-0.6113,-0.6113,0,0,0,0,0,0,-0.6241,-0.6221,-0.6215,-0.6208,-0.6197,-0.6181,-0.6178,-0.6171,-0.6162,-0.6161,-0.615,-0.6147,-0.6138,-0.6131,-0.6134,-0.6118,-0.6117,-0.6116,-0.6123,-0.6123,-0.6123,-0.6125,-0.6127,0,0,0,0,0,-0.6244,-0.6235,-0.6218,-0.6213,-0.6207,-0.6193,-0.6188,-0.618,-0.6169,-0.6165,-0.6155,-0.6144,-0.6134,-0.6129,-0.6119,-0.6111,-0.6106,-0.6107,-0.6108,-0.6108,-0.6107,-0.6099,-0.6098,-0.6104,-0.6104,-0.6104,0,0,-0.625,-0.6237,-0.6233,-0.6215,-0.6206,-0.6197,-0.619,-0.6181,-0.6174,-0.6164,-0.6153,-0.6145,-0.6132,-0.6122,-0.6118,-0.6117,-0.6104,-0.6107,-0.6108,-0.6107,-0.6098,-0.6098,-0.6097,-0.6104,-0.6104,-0.6104,0,0,-0.6255,-0.6245,-0.6238,-0.6228,-0.6212,-0.6202,-0.6201,-0.6184,-0.6178,-0.6166,-0.6157,-0.6148,-0.6133,-0.6123,-0.6116,-0.6111,-0.6106,-0.6109,-0.611,-0.6102,-0.6101,-0.6101,-0.6097,-0.6096,-0.6108,-0.6108,-0.6108,0,-0.6264,-0.6249,-0.6236,-0.6226,-0.6218,-0.6205,-0.6197,-0.6188,-0.6171,-0.6166,-0.6164,-0.6141,-0.6132,-0.6118,-0.6116,-0.6112,-0.6108,-0.6111,-0.6102,-0.6101,-0.6101,-0.6097,-0.6096,-0.6108,-0.6108,-0.6108,-0.6108,0,-0.626,-0.625,-0.6246,-0.6227,-0.6218,-0.621,-0.6194,-0.6187,-0.6178,-0.6168,-0.6155,-0.6143,-0.6129,-0.6125,-0.6118,-0.6108,-0.6107,-0.6104,-0.6103,-0.6101,-0.6097,-0.6095,-0.6109,-0.6109,-0.6109,-0.6109,0,0,-0.6279,-0.6249,-0.6247,-0.6237,-0.6217,-0.6208,-0.6198,-0.6182,-0.6174,-0.6162,-0.6152,-0.6136,-0.6131,-0.6123,-0.6115,-0.6108,-0.6101,-0.6105,-0.6104,-0.6103,-0.6086,-0.6088,-0.6087,-0.6097,-0.6097,-0.6097,-0.6086,0,-0.628,-0.626,-0.6245,-0.6231,-0.6219,-0.6204,-0.6195,-0.6181,-0.617,-0.6158,-0.6146,-0.6134,-0.613,-0.6124,-0.6117,-0.6104,-0.6098,-0.6105,-0.6086,-0.6086,-0.6089,-0.6085,-0.6088,-0.6079,-0.6085,-0.6085,-0.6085,0,-0.6281,-0.6265,-0.6248,-0.6225,-0.622,-0.6212,-0.6193,-0.6183,-0.6165,-0.6157,-0.6146,-0.6136,-0.6122,-0.6121,-0.6101,-0.6106,-0.6097,-0.6089,-0.6088,-0.6086,-0.6085,-0.6081,-0.6077,-0.6075,-0.6083,-0.6083,-0.6083,0,-0.6293,-0.6269,-0.6254,-0.6246,-0.6219,-0.6213,-0.6202,-0.6184,-0.6174,-0.6158,-0.6151,-0.6135,-0.6125,-0.6112,-0.6097,-0.6098,-0.6078,-0.6076,-0.607,-0.607,-0.6067,-0.6067,-0.6059,-0.6063,-0.6063,-0.6063,-0.6063,0,-0.6296,-0.6286,-0.6259,-0.625,-0.6237,-0.622,-0.6207,-0.6195,-0.6178,-0.6166,-0.6153,-0.6141,-0.6123,-0.6108,-0.6097,-0.608,-0.6077,-0.6069,-0.6066,-0.607,-0.607,-0.6064,-0.6064,-0.6062,-0.6062,-0.6062,-0.6062,0,-0.6309,-0.6291,-0.6273,-0.6248,-0.6241,-0.6232,-0.621,-0.62,-0.6186,-0.617,-0.6166,-0.6145,-0.6127,-0.611,-0.6087,-0.6079,-0.6061,-0.6058,-0.6067,-0.6065,-0.6059,-0.6059,-0.6046,-0.6042,-0.6049,-0.6049,-0.6049,0,-0.6312,-0.6303,-0.6275,-0.6265,-0.6253,-0.6237,-0.6226,-0.6207,-0.6195,-0.6171,-0.6164,-0.6144,-0.6128,-0.6099,-0.6082,-0.6063,-0.6058,-0.6055,-0.6056,-0.6058,-0.6056,-0.6056,-0.6053,-0.6055,-0.6055,-0.6055,-0.6055,0,-0.6319,-0.6309,-0.6292,-0.6271,-0.6256,-0.6239,-0.6222,-0.6214,-0.6192,-0.6179,-0.6159,-0.6146,-0.612,-0.61,-0.6078,-0.6065,-0.6056,-0.6054,-0.6052,-0.6055,-0.606,-0.6055,-0.6066,-0.6055,-0.6055,-0.6055,-0.6055,-0.6055,-0.6326,-0.6316,-0.6293,-0.6273,-0.6257,-0.624,-0.6228,-0.6211,-0.6194,-0.617,-0.6159,-0.6138,-0.6117,-0.6086,-0.6073,-0.6056,-0.6054,-0.6051,-0.6049,-0.6048,-0.6048,-0.6062,-0.6052,-0.6052,-0.6052,-0.6052,-0.6052,0,-0.633,-0.6313,-0.6295,-0.6269,-0.6253,-0.6243,-0.6222,-0.6209,-0.619,-0.6171,-0.6153,-0.6128,-0.6107,-0.6086,-0.6063,-0.6053,-0.6048,-0.6048,-0.6048,-0.6044,-0.6052,-0.6056,-0.6052,-0.6052,-0.6052,-0.6052,-0.6052,-0.6052,-0.6331,-0.6312,-0.6298,-0.627,-0.6253,-0.6231,-0.6219,-0.6202,-0.6185,-0.6158,-0.6139,-0.6125,-0.6103,-0.6078,-0.6057,-0.6051,-0.6043,-0.6044,-0.6037,-0.6044,-0.6045,-0.6045,-0.6048,-0.6043,-0.6043,-0.603,-0.603,-0.603]},{"header":{"parameterUnit":"m.s-1","parameterCategory":1,"la1":30.2991,"la2":30.254,"lo1":-89.0895,"lo2":-89.0444,"dy":0.0017,"dx":0.0017,"nx":28,"ny":28,"refTime":"2025-04-01T03:00:00:Z","depth":0,"parameterNumber":3,"parameterNumberName":"V-component_of_WINDS"},"data":[0,0,0,0,0,0,0,0,0,0,0,0,0,0,0,0,0,0,0,0,0,0,0,0,0,0,0,0,0,0,0,0,0,0,0,0,0,0,0,0,0,0,0,0,0,0,0,0,0,0,0,0,0,0,0,0,0,0,-2.8412,-2.8412,0,-2.8444,-2.8444,-2.8444,-2.8462,-2.8462,-2.8462,-2.8462,-2.8491,-2.8492,-2.8492,0,0,0,0,0,0,0,0,0,0,0,0,0,-2.8364,-2.8365,-2.8412,-2.8412,-2.8413,-2.8444,-2.8444,-2.8444,-2.8462,-2.8462,-2.8462,-2.8462,-2.8491,-2.8492,-2.8493,0,0,0,0,0,0,0,0,0,0,0,0,0,-2.8389,-2.8365,-2.8412,-2.8425,-2.8427,-2.8444,-2.8444,-2.8445,-2.8462,-2.8462,-2.8462,-2.8462,-2.8491,-2.8492,-2.8493,-2.8497,0,0,-2.8496,-2.8496,0,0,0,0,0,0,0,0,-2.8388,-2.8391,-2.8423,-2.8425,-2.8426,-2.8449,-2.8438,-2.8462,-2.8462,-2.8449,-2.8462,-2.8462,-2.8477,-2.8479,-2.8485,-2.8499,-2.85,-2.8496,-2.8497,-2.8497,-2.8497,0,0,0,0,0,0,0,-2.8386,-2.8389,-2.8424,-2.8423,-2.8425,-2.8429,-2.8433,-2.8442,-2.8462,-2.845,-2.8451,-2.8455,-2.8478,-2.8484,-2.8485,-2.85,-2.8496,-2.8497,-2.8498,-2.8498,-2.852,-2.852,0,0,0,0,0,0,-2.8382,-2.8388,-2.8423,-2.8425,-2.8407,-2.843,-2.8434,-2.8442,-2.8462,-2.8465,-2.8455,-2.8456,-2.8482,-2.8484,-2.8486,-2.8493,-2.8497,-2.8498,-2.8499,-2.852,-2.852,-2.852,0,0,0,0,0,0,-2.8381,-2.8385,-2.8422,-2.8407,-2.8412,-2.843,-2.8439,-2.8442,-2.8448,-2.8465,-2.8469,-2.8457,-2.8482,-2.8485,-2.8495,-2.8495,-2.8499,-2.85,-2.852,-2.852,-2.852,-2.8507,0,0,0,0,0,0,-2.838,-2.8385,-2.8387,-2.8407,-2.8413,-2.8431,-2.8439,-2.8443,-2.845,-2.8452,-2.8469,-2.8472,-2.8482,-2.8493,-2.8496,-2.8496,-2.85,-2.852,-2.852,-2.852,-2.8507,-2.8507,-2.8506,0,0,0,0,0,-2.8378,-2.8382,-2.8387,-2.8392,-2.8417,-2.8431,-2.8434,-2.8447,-2.845,-2.8453,-2.8464,-2.8471,-2.8494,-2.8494,-2.8497,-2.8498,-2.852,-2.852,-2.852,-2.8508,-2.8507,-2.8506,0,0,0,0,0,0,-2.836,-2.8384,-2.8391,-2.8401,-2.8414,-2.8434,-2.8437,-2.8445,-2.8456,-2.8457,-2.8472,-2.8475,-2.8483,-2.8492,-2.8491,-2.8503,-2.8508,-2.8508,-2.8498,-2.8497,-2.8496,-2.8493,-2.8501,0,0,0,0,0,-2.8357,-2.8368,-2.8388,-2.8395,-2.8402,-2.8418,-2.8425,-2.8434,-2.8447,-2.8452,-2.8464,-2.8475,-2.8486,-2.8492,-2.8502,-2.8509,-2.8513,-2.8511,-2.851,-2.8509,-2.8509,-2.8514,-2.8513,-2.8519,-2.8519,-2.8519,0,0,-2.8352,-2.8366,-2.8372,-2.8392,-2.8403,-2.8413,-2.8422,-2.8432,-2.8439,-2.8453,-2.8464,-2.8473,-2.8486,-2.8495,-2.8499,-2.8502,-2.8509,-2.8509,-2.8508,-2.8509,-2.8514,-2.8513,-2.8513,-2.8519,-2.8519,-2.8519,0,0,-2.8346,-2.8359,-2.8366,-2.8377,-2.8394,-2.8406,-2.8407,-2.8426,-2.8433,-2.8444,-2.8455,-2.8463,-2.848,-2.849,-2.8497,-2.8496,-2.8503,-2.8499,-2.8494,-2.8498,-2.8497,-2.8497,-2.8497,-2.8497,-2.8499,-2.8499,-2.8499,0,-2.8337,-2.8353,-2.8369,-2.8378,-2.8387,-2.8402,-2.8409,-2.8418,-2.8437,-2.8442,-2.8445,-2.8467,-2.8478,-2.8489,-2.8489,-2.8494,-2.8496,-2.8497,-2.8497,-2.8496,-2.8496,-2.8496,-2.8496,-2.8498,-2.8498,-2.8498,-2.8498,0,-2.834,-2.8351,-2.8355,-2.8375,-2.8384,-2.8392,-2.8408,-2.8415,-2.8424,-2.8434,-2.8445,-2.8458,-2.8472,-2.8475,-2.8483,-2.8487,-2.8489,-2.8494,-2.8499,-2.8495,-2.8495,-2.8495,-2.8497,-2.8498,-2.8498,-2.8498,0,0,-2.8323,-2.8353,-2.8354,-2.8363,-2.8383,-2.8392,-2.84,-2.8415,-2.842,-2.8433,-2.844,-2.8455,-2.846,-2.8468,-2.8477,-2.8481,-2.848,-2.8486,-2.8487,-2.8484,-2.8486,-2.8482,-2.8481,-2.8485,-2.8485,-2.8485,-2.8485,0,-2.8321,-2.8339,-2.8354,-2.8366,-2.8376,-2.8391,-2.8398,-2.8411,-2.8422,-2.8431,-2.8442,-2.8452,-2.8458,-2.8463,-2.8468,-2.8479,-2.848,-2.848,-2.8491,-2.8492,-2.8487,-2.8481,-2.8477,-2.8475,-2.8485,-2.8485,-2.8485,0,-2.832,-2.8334,-2.8347,-2.8367,-2.8372,-2.8379,-2.8394,-2.8403,-2.8417,-2.8425,-2.8434,-2.8444,-2.8454,-2.8458,-2.8471,-2.847,-2.8476,-2.8482,-2.8482,-2.8483,-2.8488,-2.8482,-2.8475,-2.8475,-2.8485,-2.8485,-2.8485,0,-2.8306,-2.8328,-2.8339,-2.8346,-2.837,-2.8374,-2.8384,-2.8399,-2.8407,-2.842,-2.8425,-2.8438,-2.8445,-2.8454,-2.8467,-2.8469,-2.8478,-2.8484,-2.8484,-2.8484,-2.8485,-2.8484,-2.8478,-2.8489,-2.8489,-2.8489,-2.8489,0,-2.8301,-2.8309,-2.8333,-2.834,-2.8349,-2.8366,-2.8374,-2.8385,-2.8398,-2.8407,-2.842,-2.8427,-2.8444,-2.8453,-2.8463,-2.8472,-2.8475,-2.8481,-2.8483,-2.8479,-2.8479,-2.8483,-2.8483,-2.8489,-2.8489,-2.8489,-2.8489,0,-2.8286,-2.8303,-2.8316,-2.8339,-2.8344,-2.835,-2.8368,-2.8375,-2.8387,-2.8397,-2.8401,-2.8418,-2.843,-2.8445,-2.846,-2.8467,-2.8475,-2.8479,-2.847,-2.8472,-2.8471,-2.8471,-2.8468,-2.8468,-2.8478,-2.8478,-2.8478,0,-2.8282,-2.8288,-2.8312,-2.8319,-2.8329,-2.8341,-2.835,-2.8367,-2.8375,-2.8393,-2.8397,-2.841,-2.8422,-2.844,-2.8453,-2.8466,-2.847,-2.8468,-2.8471,-2.8468,-2.8469,-2.8469,-2.8469,-2.8466,-2.8466,-2.8466,-2.8466,0,-2.8272,-2.8281,-2.8293,-2.8309,-2.832,-2.8333,-2.8346,-2.8351,-2.8371,-2.8379,-2.8392,-2.8401,-2.8419,-2.8431,-2.8445,-2.8454,-2.8463,-2.8465,-2.8466,-2.8461,-2.8456,-2.8459,-2.8467,-2.8465,-2.8465,-2.8465,-2.8465,-2.8465,-2.8262,-2.8269,-2.8287,-2.8301,-2.8313,-2.8326,-2.8334,-2.8347,-2.8359,-2.8375,-2.8384,-2.8397,-2.8412,-2.8432,-2.8441,-2.8451,-2.8454,-2.8455,-2.8455,-2.8455,-2.8454,-2.8455,-2.8453,-2.8453,-2.8453,-2.8454,-2.8454,0,-2.8253,-2.8266,-2.8279,-2.8298,-2.8309,-2.8318,-2.8334,-2.8342,-2.8353,-2.8367,-2.8379,-2.8394,-2.8407,-2.8422,-2.8436,-2.844,-2.8445,-2.8443,-2.8443,-2.8445,-2.845,-2.8448,-2.844,-2.844,-2.844,-2.844,-2.844,-2.844,-2.8249,-2.8261,-2.8272,-2.829,-2.8303,-2.8317,-2.8325,-2.8336,-2.8348,-2.8365,-2.8376,-2.8387,-2.8401,-2.8416,-2.8428,-2.8432,-2.8436,-2.8433,-2.8438,-2.8443,-2.8444,-2.8445,-2.8444,-2.8434,-2.8434,-2.8432,-2.8432,-2.8432]}]]